TimeEST,TemperatureF,Dew PointF,Humidity,Sea Level PressureIn,VisibilityMPH,Wind Direction,Wind SpeedMPH,Gust SpeedMPH,PrecipitationIn,Events,Conditions,WindDirDegrees,DateUTC
12:04 AM,19.4,17.6,93,30.04,2.0,Calm,Calm,-,N/A,,Overcast,0,2013-12-04 05:04:00
12:26 AM,19.4,17.6,93,30.04,3.0,SW,3.5,-,N/A,,Overcast,220,2013-12-04 05:26:00
12:36 AM,17.6,17.6,100,30.05,1.5,Calm,Calm,-,N/A,,Mostly Cloudy,0,2013-12-04 05:36:00
12:43 AM,19.4,15.8,86,30.05,1.2,Calm,Calm,-,N/A,,Mostly Cloudy,0,2013-12-04 05:43:00
12:46 AM,21.2,17.6,86,30.05,2.0,Calm,Calm,-,N/A,,Mostly Cloudy,0,2013-12-04 05:46:00
12:53 AM,21.9,18.0,85,30.07,3.0,Calm,Calm,-,N/A,,Mostly Cloudy,0,2013-12-04 05:53:00
1:53 AM,19.9,18.0,92,30.09,3.0,Calm,Calm,-,N/A,,Mostly Cloudy,0,2013-12-04 06:53:00
2:02 AM,19.4,15.8,86,30.07,2.5,Calm,Calm,-,N/A,,Mostly Cloudy,0,2013-12-04 07:02:00
2:28 AM,19.4,17.6,93,30.08,3.0,SW,4.6,-,N/A,,Mostly Cloudy,220,2013-12-04 07:28:00
2:44 AM,19.4,17.6,93,30.08,4.0,WSW,3.5,-,N/A,,Scattered Clouds,240,2013-12-04 07:44:00
2:53 AM,19.9,18.0,92,30.10,4.0,SW,3.5,-,N/A,,Partly Cloudy,230,2013-12-04 07:53:00
3:53 AM,19.0,18.0,96,30.10,2.5,Calm,Calm,-,N/A,,Mostly Cloudy,0,2013-12-04 08:53:00
4:14 AM,19.4,17.6,93,30.09,3.0,Calm,Calm,-,N/A,,Overcast,0,2013-12-04 09:14:00
4:24 AM,19.4,17.6,93,30.08,4.0,Calm,Calm,-,N/A,,Overcast,0,2013-12-04 09:24:00
4:41 AM,21.2,19.4,93,30.08,5.0,Calm,Calm,-,N/A,,Overcast,0,2013-12-04 09:41:00
4:53 AM,21.0,18.0,88,30.11,4.0,Calm,Calm,-,N/A,,Overcast,0,2013-12-04 09:53:00
5:15 AM,21.2,17.6,86,30.10,5.0,WSW,4.6,-,N/A,,Overcast,240,2013-12-04 10:15:00
5:34 AM,23.0,21.2,93,30.10,6.0,WSW,3.5,-,N/A,,Overcast,250,2013-12-04 10:34:00
5:53 AM,24.1,21.9,91,30.13,5.0,Calm,Calm,-,N/A,,Overcast,0,2013-12-04 10:53:00
6:03 AM,24.8,21.2,86,30.11,5.0,Calm,Calm,-,N/A,,Overcast,0,2013-12-04 11:03:00
6:53 AM,24.1,21.0,88,30.15,5.0,Calm,Calm,-,N/A,,Mostly Cloudy,0,2013-12-04 11:53:00
7:32 AM,21.2,21.2,100,30.14,3.0,Calm,Calm,-,N/A,,Scattered Clouds,0,2013-12-04 12:32:00
7:40 AM,21.2,19.4,93,30.14,3.0,Calm,Calm,-,N/A,,Mostly Cloudy,0,2013-12-04 12:40:00
7:53 AM,23.0,21.0,92,30.17,4.0,SSW,4.6,-,N/A,,Overcast,210,2013-12-04 12:53:00
8:53 AM,25.0,24.1,96,30.17,3.0,Calm,Calm,-,N/A,,Overcast,0,2013-12-04 13:53:00
9:11 AM,24.8,24.8,100,30.15,3.0,Calm,Calm,-,N/A,,Overcast,0,2013-12-04 14:11:00
9:53 AM,26.1,25.0,96,30.18,3.0,Calm,Calm,-,N/A,,Overcast,0,2013-12-04 14:53:00
10:53 AM,28.0,26.1,92,30.16,3.0,East,3.5,-,N/A,,Scattered Clouds,100,2013-12-04 15:53:00
11:53 AM,30.0,28.0,92,30.15,6.0,ENE,3.5,-,N/A,,Mostly Cloudy,60,2013-12-04 16:53:00
12:53 PM,30.9,28.0,89,30.13,8.0,Calm,Calm,-,N/A,,Overcast,0,2013-12-04 17:53:00
1:53 PM,33.1,28.0,82,30.12,9.0,ENE,3.5,-,N/A,,Overcast,70,2013-12-04 18:53:00
2:53 PM,34.0,28.9,82,30.12,9.0,ENE,4.6,-,N/A,,Overcast,60,2013-12-04 19:53:00
3:53 PM,34.0,28.9,82,30.13,9.0,NNE,6.9,-,N/A,,Overcast,30,2013-12-04 20:53:00
4:53 PM,34.0,30.0,85,30.14,8.0,ENE,5.8,-,N/A,,Overcast,60,2013-12-04 21:53:00
5:53 PM,34.0,28.9,82,30.13,10.0,ENE,8.1,-,N/A,,Mostly Cloudy,60,2013-12-04 22:53:00
6:53 PM,33.1,28.0,82,30.13,10.0,ENE,9.2,-,N/A,,Partly Cloudy,60,2013-12-04 23:53:00
7:53 PM,32.0,27.0,82,30.12,9.0,ENE,8.1,-,N/A,,Clear,70,2013-12-05 00:53:00
8:53 PM,32.0,27.0,82,30.11,9.0,ENE,6.9,-,N/A,,Clear,60,2013-12-05 01:53:00
9:53 PM,32.0,27.0,82,30.11,9.0,ENE,9.2,-,N/A,,Clear,70,2013-12-05 02:53:00
10:53 PM,32.0,27.0,82,30.09,9.0,ENE,12.7,-,N/A,,Clear,60,2013-12-05 03:53:00
11:53 PM,32.0,27.0,82,30.09,8.0,ENE,9.2,-,N/A,,Clear,60,2013-12-05 04:53:00